Aeroporto :
LOGIN :

Iscrizione | Disclaimer

   EN    FR    IT 

 










Sommario :    VFR   VFR Marginale   IFR   IFR Intensivo   IFR Molto Intensivo
Visibilità : 
Base nubi : 
>= 8 km
>= 3000ft
5 / 8 km
1000 / 3000 ft
1500m / 5 km
500 / 1000 ft
800 / 1500m
200 / 500 ft
< 800m
< 200 ft
Simboli :   Temporali  Nebbia  Neve Forte  Precipitazioni Forti  Vento > 20 kt
SIGMETs :   Varie  Temporali  Ghiacco  Turbolenza  Onda orograficha  Ceneri Vulcaniche







- Altitudine del aeroporto : 75 ft
- Codice IATA : YEO


EGDY - RNAS Yeovilton

ULTIMO METAR :
  • 211150Z 17002KT 5000 HZ SCT007 SCT022 04/03 Q1009 GRN BECMG 6000 HZ FEW007 SCT022 WHT

METARs OBSOLETI :
  • 211050Z 25002KT 4000 HZ BKN007 03/03 Q1009 GRN TEMPO 6000 HZ FEW009 BKN015 WHT
  • 210950Z 25003KT 4000 BR BKN009 BKN015 02/02 Q1008 GRN TEMPO 6000 HZ FEW009 BKN015 WHT

TAF TAF EGDY
Valido dal 21 a 12 ore il 21 a 21 ore UTC


211035Z 2112/2121 14007KT 7000 HZ FEW008 BKN015
TEMPO 2112/2117 14010G20KT 4000 SHRA SCT008 BKN010TCU
BECMG 2116/2118 11005KT 9999 NSW SCT040
Nessun NOTAM noto per questo aeroporto.



MetMap, La meteo Aeronautica in un colpo d'occhio ! - Copyright ORBIFLY Dicembre 2007 - Disclaimer

ORBIFLY MET'MAP TEAM :

Programmazione e sviluppo : Alexandra Zaïnal
Concezione e sviluppo : Baudouin d'Aumeries
Co-Programmazione e sviluppo : Marc-Olivier Méhu
Supporto tecnico e logistico : Manuel Goepfert
Aiuto per la traduzione : Arnaldo La Scala

Contatto : metmap@orbifly.com




FONTI E CREDITI :

   NOAA